Date String (YYYY-MM-DD hh:mm:ss) UTC,Instrument flags,absolute air pressure of the measurement (hPa),sample flow rate (lpm),inlet stack bypass flow (lpm),air temperature of the measurement (°C),ambient temperature measured by the external sensor (°C),aerosol sample conditioner tube jacket temperature (°C),OPC LED temperature (°C),internal box temperature (°C),relative humidity of the measurement (%),span deviation,mass concentration of particles derived from Lorenz-Mie calculation of OPC scattering (μg/m³),mass concentration of particles derived from Lorenz-Mie calculation of OPC scattering (μg/m³),mass concentration of particles derived from Lorenz-Mie calculation of OPC scattering (μg/m³)
DateTimeUTC,F1_M11,P_M11,Q1_M11,Q2_M11,T1_M11,T2_M11,T3_M11,T4_M11,T5_M11,U1_M11,ZSPAN_M11,X0_M11,X2_M11,X1_M11
2024-05-31 04:00:00,SystemResetWarning,0830.1,4.99,000.00,029.9,029.2,000.0,038.2,031.7,024.1,0000.0,0011.66,0004.61,0003.46
2024-05-31 04:01:00,SystemResetWarning,0830.2,5.00,000.00,030.0,029.3,000.0,038.3,031.7,023.6,0000.0,0011.97,0004.63,0003.46
2024-05-31 04:02:00,SystemResetWarning,0830.2,5.01,000.00,030.0,029.4,000.0,038.3,031.8,023.5,0000.0,0013.18,0004.61,0003.45
2024-05-31 04:03:00,SystemResetWarning,0830.3,5.00,000.00,030.1,029.4,000.0,038.3,031.8,023.7,0000.0,0013.47,0004.59,0003.45
2024-05-31 04:04:00,SystemResetWarning,0830.3,5.01,000.00,030.1,029.5,000.0,038.3,031.9,023.3,0000.0,0013.07,0004.54,0003.47
2024-05-31 04:05:00,SystemResetWarning,0830.2,5.00,000.00,030.1,029.6,000.0,038.3,031.9,023.5,0000.0,0013.16,0004.53,0003.47
2024-05-31 04:06:00,SystemResetWarning,0830.2,5.00,000.00,030.2,029.6,000.0,038.4,032.0,023.9,0000.0,0012.91,0004.55,0003.47
2024-05-31 04:07:00,SystemResetWarning,0830.2,5.00,000.00,030.2,029.6,000.0,038.4,032.0,023.5,0000.0,0013.40,0004.54,0003.46
2024-05-31 04:08:00,SystemResetWarning,0830.3,5.00,000.00,030.2,029.7,000.0,038.4,032.0,023.0,0000.0,0013.90,0004.54,0003.45
2024-05-31 04:09:00,SystemResetWarning,0830.3,5.00,000.00,030.3,029.7,000.0,038.4,032.0,024.4,0000.0,0014.02,0004.55,0003.45
2024-05-31 04:10:00,SystemResetWarning,0830.3,5.00,000.00,030.3,029.8,000.0,038.5,032.0,024.8,0000.0,0013.69,0004.57,0003.45
2024-05-31 04:11:00,SystemResetWarning,0830.3,5.00,000.00,030.3,029.8,000.0,038.5,032.1,024.8,0000.0,0012.71,0004.54,0003.45
2024-05-31 04:12:00,SystemResetWarning,0830.3,5.00,000.00,030.4,029.8,000.0,038.5,032.1,024.2,0000.0,0012.64,0004.57,0003.47
2024-05-31 04:13:00,SystemResetWarning,0830.3,4.99,000.00,030.4,029.9,000.0,038.6,032.2,023.1,0000.0,0011.71,0004.64,0003.49
2024-05-31 04:14:00,SystemResetWarning,0830.3,5.00,000.00,030.4,029.9,000.0,038.6,032.2,023.0,0000.0,0011.86,0004.64,0003.49
2024-05-31 04:15:00,SystemResetWarning,0830.3,5.01,000.00,030.5,029.9,000.0,038.6,032.2,023.2,0000.0,0011.60,0004.63,0003.47
2024-05-31 04:16:00,SystemResetWarning,0830.3,5.00,000.00,030.5,030.0,000.0,038.7,032.2,023.2,0000.0,0011.53,0004.65,0003.47
2024-05-31 04:17:00,SystemResetWarning,0830.3,5.01,000.00,030.5,030.0,000.0,038.7,032.3,023.8,0000.0,0011.46,0004.62,0003.46
2024-05-31 04:18:00,SystemResetWarning,0830.3,5.00,000.00,030.5,030.0,000.0,038.7,032.3,024.2,0000.0,0010.91,0004.63,0003.46
2024-05-31 04:19:00,SystemResetWarning,0830.3,4.99,000.00,030.6,030.0,000.0,038.8,032.4,024.1,0000.0,0010.49,0004.67,0003.46
2024-05-31 04:20:00,SystemResetWarning,0830.3,4.99,000.00,030.6,030.1,000.0,038.8,032.4,024.0,0000.0,0010.90,0004.70,0003.48
2024-05-31 04:21:00,SystemResetWarning,0830.3,5.00,000.00,030.6,030.1,000.0,038.8,032.4,023.9,0000.0,0011.21,0004.70,0003.50
2024-05-31 04:22:00,SystemResetWarning,0830.3,5.00,000.00,030.7,030.1,000.0,038.8,032.5,023.9,0000.0,0011.37,0004.73,0003.50
2024-05-31 04:23:00,SystemResetWarning,0830.3,5.01,000.00,030.7,030.1,000.0,038.9,032.5,023.7,0000.0,0011.45,0004.73,0003.49
2024-05-31 04:24:00,SystemResetWarning,0830.3,5.00,000.00,030.7,030.1,000.0,038.9,032.5,023.3,0000.0,0011.21,0004.72,0003.49
2024-05-31 04:25:00,SystemResetWarning,0830.3,5.01,000.00,030.7,030.1,000.0,038.9,032.5,023.1,0000.0,0010.60,0004.72,0003.51
2024-05-31 04:26:00,SystemResetWarning,0830.3,5.00,000.00,030.7,030.1,000.0,038.9,032.5,023.2,0000.0,0010.57,0004.72,0003.52
2024-05-31 04:27:00,SystemResetWarning,0830.3,4.99,000.00,030.8,030.1,000.0,038.9,032.5,022.9,0000.0,0010.47,0004.70,0003.51
2024-05-31 04:28:00,SystemResetWarning,0830.3,5.00,000.00,030.8,030.2,000.0,039.0,032.5,022.9,0000.0,0010.68,0004.73,0003.52
2024-05-31 04:29:00,SystemResetWarning,0830.3,4.99,000.00,030.8,030.2,000.0,039.0,032.5,023.0,0000.0,0010.94,0004.70,0003.51
2024-05-31 04:30:00,SystemResetWarning,0830.3,5.00,000.00,030.8,030.2,000.0,039.0,032.6,023.3,0000.0,0011.80,0004.67,0003.52
2024-05-31 04:31:00,SystemResetWarning,0830.2,5.00,000.00,030.8,030.2,000.0,039.0,032.6,023.1,0000.0,0011.43,0004.64,0003.51
2024-05-31 04:32:00,SystemResetWarning,0830.3,5.01,000.00,030.8,030.2,000.0,039.0,032.6,022.9,0000.0,0011.50,0004.61,0003.50
2024-05-31 04:33:00,SystemResetWarning,0830.2,5.00,000.00,030.8,030.2,000.0,039.1,032.6,023.1,0000.0,0012.26,0004.58,0003.49
2024-05-31 04:34:00,SystemResetWarning,0830.2,5.00,000.00,030.9,030.2,000.0,039.1,032.6,023.1,0000.0,0013.24,0004.57,0003.48
2024-05-31 04:35:00,SystemResetWarning,0830.2,5.00,000.00,030.9,030.3,000.0,039.1,032.6,022.8,0000.0,0013.40,0004.59,0003.47
2024-05-31 04:36:00,SystemResetWarning,0830.2,5.00,000.00,030.9,030.3,000.0,039.1,032.6,022.6,0000.0,0013.63,0004.60,0003.48
2024-05-31 04:37:00,SystemResetWarning,0830.2,5.01,000.00,030.9,030.3,000.0,039.1,032.7,022.8,0000.0,0013.54,0004.61,0003.48
2024-05-31 04:38:00,SystemResetWarning,0830.3,5.00,000.00,030.9,030.3,000.0,039.1,032.7,023.2,0000.0,0013.53,0004.60,0003.47
2024-05-31 04:39:00,SystemResetWarning,0830.2,4.99,000.00,030.9,030.3,000.0,039.2,032.7,022.7,0000.0,0013.73,0004.57,0003.49
2024-05-31 04:40:00,SystemResetWarning,0830.2,4.99,000.00,031.0,030.3,000.0,039.2,032.7,022.4,0000.0,0014.60,0004.58,0003.49
2024-05-31 04:41:00,SystemResetWarning,0830.3,4.99,000.00,031.0,030.3,000.0,039.2,032.7,022.4,0000.0,0014.12,0004.59,0003.49
2024-05-31 04:42:00,SystemResetWarning,0830.2,5.01,000.00,031.0,030.3,000.0,039.2,032.7,022.4,0000.0,0013.96,0004.60,0003.50
2024-05-31 04:43:00,SystemResetWarning,0830.2,5.00,000.00,031.0,030.3,000.0,039.2,032.7,022.4,0000.0,0013.72,0004.62,0003.50
2024-05-31 04:44:00,SystemResetWarning,0830.1,5.00,000.00,031.0,030.4,000.0,039.2,032.7,022.3,0000.0,0013.09,0004.68,0003.52
2024-05-31 04:45:00,SystemResetWarning,0830.1,5.00,000.00,031.0,030.4,000.0,039.2,032.7,022.4,0000.0,0012.10,0004.70,0003.54
2024-05-31 04:46:00,SystemResetWarning,0830.1,5.00,000.00,031.0,030.4,000.0,039.3,032.8,022.4,0000.0,0012.05,0004.69,0003.55
2024-05-31 04:47:00,SystemResetWarning,0830.1,5.00,000.00,031.0,030.4,000.0,039.3,032.8,022.5,0000.0,0011.79,0004.68,0003.54
2024-05-31 04:48:00,SystemResetWarning,0830.1,4.99,000.00,031.0,030.4,000.0,039.3,032.8,022.6,0000.0,0011.83,0004.68,0003.55
2024-05-31 04:49:00,SystemResetWarning,0830.1,5.00,000.00,031.1,030.4,000.0,039.3,032.8,022.9,0000.0,0012.11,0004.69,0003.55
2024-05-31 04:50:00,SystemResetWarning,0830.1,5.01,000.00,031.1,030.4,000.0,039.3,032.8,023.2,0000.0,0012.46,0004.67,0003.55
2024-05-31 04:51:00,SystemResetWarning,0830.0,5.01,000.00,031.1,030.4,000.0,039.3,032.8,023.2,0000.0,0011.82,0004.66,0003.55
2024-05-31 04:52:00,SystemResetWarning,0830.0,5.00,000.00,031.1,030.4,000.0,039.3,032.8,023.5,0000.0,0011.80,0004.66,0003.55
2024-05-31 04:53:00,SystemResetWarning,0830.0,4.99,000.00,031.1,030.4,000.0,039.3,032.8,023.4,0000.0,0011.66,0004.70,0003.55
2024-05-31 04:54:00,SystemResetWarning,0830.0,4.99,000.00,031.1,030.4,000.0,039.4,032.8,023.2,0000.0,0011.44,0004.69,0003.57
2024-05-31 04:55:00,SystemResetWarning,0830.0,5.00,000.00,031.1,030.4,000.0,039.4,032.8,023.2,0000.0,0011.29,0004.67,0003.56
2024-05-31 04:56:00,SystemResetWarning,0830.0,5.00,000.00,031.1,030.4,000.0,039.4,032.8,022.9,0000.0,0011.35,0004.66,0003.55
2024-05-31 04:57:00,SystemResetWarning,0830.0,5.00,000.00,031.1,030.4,000.0,039.4,032.8,022.7,0000.0,0011.66,0004.66,0003.55
2024-05-31 04:58:00,SystemResetWarning,0830.0,5.00,000.00,031.1,030.4,000.0,039.4,032.8,022.8,0000.0,0011.80,0004.69,0003.55
2024-05-31 04:59:00,SystemResetWarning,0830.0,4.99,000.00,031.0,029.0,000.0,039.4,032.0,023.0,0000.0,0012.46,0004.72,0003.56
